Location: Buckhorn Peak
(37.6641°N, 120.1241°W)
Time: 22:54:02
(UTC+00:00)

Courier 1B Rocket - Visible Passes

Search period start: 13 January 2026 00:00
Search period end: 23 January 2026 00:00
Orbit: 920 x 1201 km, 28.2° (Epoch: 13 January)

Date Brightness Start Highest point End Pass type
(mag) Time Alt. Az. Time Alt. Az. Time Alt. Az.
17 Jan 7.7 13:51:56 10° S 13:54:17 12° SSE 13:56:36 10° SE visible
18 Jan 7.3 14:40:40 10° SSW 14:45:54 22° SSE 14:50:54 10° ESE visible
19 Jan 7.5 13:40:17 10° SSW 13:44:49 18° SSE 13:49:11 10° ESE visible
20 Jan 7.6 12:40:36 10° S 12:43:44 13° SSE 12:46:48 10° SE visible
20 Jan 6.9 14:30:30 10° SW 14:36:30 28° SSE 14:42:11 10° ESE visible
21 Jan 7.1 13:29:43 10° SSW 13:35:22 24° SSE 13:40:46 10° ESE visible
22 Jan 7.2 12:30:37 14° S 12:34:14 19° SSE 12:39:02 10° ESE visible
22 Jan 6.6 14:20:37 10° SW 14:27:07 34° S 14:33:14 10° ESE visible
